Saint Vigeans, United Kingdom

7:13 PM BST on April 28, 2017 (GMT +0100)
Saint Vigeans

Weather History for 03171 - October, 2012

Change the Weather History Date:

Monday, October 8, 2012

  Actual Average Record
Temperature  
Mean Temperature 46 °F -  
Max Temperature 56 °F 51 °F - ()
Min Temperature 35 °F 41 °F - ()
Degree Days  
Heating Degree Days 19    
Moisture  
Dew Point 36 °F    
Average Humidity 73    
Maximum Humidity 93    
Minimum Humidity 43    
Precipitation  
Precipitation 0.00 in - - ()
Sea Level Pressure  
Sea Level Pressure 30.03 in    
Wind  
Wind Speed 7 mph ()    
Max Wind Speed 12 mph    
Max Gust Speed -    
Visibility 6.2 miles    
Events      
T = Trace of Precipitation, MM = Missing Value Source: Averaged Metar Reports

Daily Weather History Graph

Daily Weather History Graph

Search for Another Location

Airport or City:

Trip Planner

Search our weather history database for the weather conditions in past years. The results will help you decide how hot, cold, wet, or windy it might be!

Date:

Astronomy

Oct. 08, 2012 Rise Set
Actual Time 7:29 AM BST 6:27 PM BST
Civil Twilight 6:51 AM BST 7:04 PM BST
Nautical Twilight 6:08 AM BST 7:47 PM BST
Astronomical Twilight 5:24 AM BST 8:32 PM BST
Moon 11:45 PM BST (10/8) 3:17 PM BST (10/8)
Length of Visible Light 12h 12m
Length of Day
10h 57m
Waning Gibbous, 48% of the Moon is Illuminated
Oct 8
Waning Gibbous
Oct 15
New
Oct 22
First Quarter
Oct 29
Full
Nov 7
Last Quarter

Hourly Weather History & Observations

Time (BST) Temp. Windchill Dew Point Humidity Pressure Visibility Wind Dir Wind Speed Gust Speed Precip Events Conditions
12:50 AM 40 °F - 36 °F 80% 30.12 in 37 mi West 5.8 mph - -   Clear
12:50 AM 39.2 °F 35.0 °F 35.6 °F 87% 30.09 in - West 5.8 mph - N/A   Clear
1:50 AM 39.2 °F 33.0 °F 35.6 °F 87% 30.09 in - West 9.2 mph - N/A   Clear
2:50 AM 39.2 °F 33.6 °F 35.6 °F 87% 30.09 in - West 8.1 mph - N/A   Clear
3:50 AM 38 °F - 35 °F 82% 30.08 in 31 mi West 8.1 mph - -   Clear
3:50 AM 37.4 °F 31.4 °F 33.8 °F 87% 30.06 in - West 8.1 mph - N/A   Clear
4:50 AM 37.4 °F 32.1 °F 35.6 °F 93% 30.06 in - West 6.9 mph - N/A   Clear
5:50 AM 37.4 °F 31.4 °F 35.6 °F 93% 30.04 in - West 8.1 mph - N/A   Clear
6:50 AM 38 °F - 35 °F 83% 30.05 in 37 mi West 6.9 mph - -   Scattered Clouds
6:50 AM 37.4 °F 32.1 °F 35.6 °F 93% 30.04 in 6.2 mi West 6.9 mph - N/A   Mostly Cloudy
7:50 AM 39.2 °F 33.0 °F 35.6 °F 87% 30.04 in 6.2 mi West 9.2 mph - N/A   Mostly Cloudy
8:50 AM 39.2 °F 33.6 °F 35.6 °F 87% 30.04 in 6.2 mi West 8.1 mph - N/A   Scattered Clouds
9:50 AM 43 °F - 38 °F 77% 30.04 in 31 mi WSW 9.2 mph - -   Scattered Clouds
9:50 AM 42.8 °F 37.5 °F 37.4 °F 81% 30.04 in 6.2 mi WSW 9.2 mph - N/A   Partly Cloudy
10:50 AM 48.2 °F - 39.2 °F 71% 30.01 in 6.2 mi West 11.5 mph - N/A   Partly Cloudy
11:50 AM 51.8 °F - 37.4 °F 58% 30.01 in 6.2 mi West 10.4 mph - N/A   Partly Cloudy
12:50 PM 52 °F - 38 °F 47% 30.01 in 31 mi NW 9.2 mph - -   Scattered Clouds
12:50 PM 51.8 °F - 37.4 °F 58% 30.01 in 6.2 mi NW 9.2 mph - N/A   Partly Cloudy
1:50 PM 55.4 °F - 39.2 °F 54% 29.98 in 6.2 mi WNW 11.5 mph - N/A   Partly Cloudy
2:50 PM 53.6 °F - 39.2 °F 58% 29.98 in 6.2 mi NW 9.2 mph - N/A   Partly Cloudy
3:50 PM 55 °F - 39 °F 43% 29.98 in 31 mi NW 6.9 mph - -   Scattered Clouds
3:50 PM 55.4 °F - 39.2 °F 54% 29.98 in 6.2 mi NW 6.9 mph - N/A   Partly Cloudy
4:50 PM 55.4 °F - 41.0 °F 58% 29.98 in 6.2 mi NNW 6.9 mph - N/A   Mostly Cloudy
5:50 PM 51.8 °F - 41.0 °F 67% 29.98 in 6.2 mi NNE 4.6 mph - N/A   Mostly Cloudy
6:50 PM 49 °F - 36 °F 50% 30.02 in 25 mi North 8.1 mph - -   Mostly Cloudy
6:50 PM 48.2 °F - 35.6 °F 62% 30.01 in - North 8.1 mph - N/A   Clear
7:50 PM 44.6 °F 41.4 °F 35.6 °F 71% 30.01 in - North 5.8 mph - N/A   Clear
8:50 PM 42.8 °F - 35.6 °F 76% 30.04 in - NNW 2.3 mph - N/A   Clear
9:50 PM 42 °F - 34 °F 66% 30.05 in 22 mi West 1.2 mph - -   Scattered Clouds
9:50 PM 42.8 °F - 33.8 °F 70% 30.04 in - West 1.2 mph - N/A   Clear
10:50 PM 37.4 °F 32.8 °F 33.8 °F 87% 30.04 in - West 5.8 mph - N/A   Clear
11:50 PM 35.6 °F 29.9 °F 32.0 °F 87% 30.06 in - West 6.9 mph - N/A   Clear